Oakland, CA

6:52 PM PST on December 15, 2019 (GMT -0800)
Metro Oakland International

Weather History for KOAK - October, 2019

Change the Weather History Date:

Saturday, October 5, 2019

  Actual Average Record
Temperature  
Mean Temperature 64 °F 62 °F  
Max Temperature 80 °F 72 °F 95 °F (2013)
Min Temperature 48 °F 53 °F 42 °F (2009)
Degree Days  
Heating Degree Days 1 3  
Month to date heating degree days 21 15  
Since 1 July heating degree days 51 215  
Cooling Degree Days 0 1  
Month to date cooling degree days 0 5  
Year to date cooling degree days 364 130  
Growing Degree Days 14 (Base 50)    
Moisture  
Dew Point 44 °F    
Average Humidity 53    
Maximum Humidity 77    
Minimum Humidity 28    
Precipitation  
Precipitation 0.00 in 0.02 in 0.48 in (2011)
Month to date precipitation 0.00 0.08  
Year to date precipitation 15.94 13.58  
Sea Level Pressure  
Sea Level Pressure 30.09 in    
Wind  
Wind Speed 5 mph (NNW)    
Max Wind Speed 14 mph    
Max Gust Speed 19 mph    
Visibility 10 miles    
Events      
T = Trace of Precipitation, MM = Missing Value Source: NWS Daily Summary

Daily Weather History Graph

Daily Weather History Graph

Search for Another Location

Airport or City:

Astronomy

Oct. 05, 2019 Rise Set
Actual Time 7:07 AM PDT 6:46 PM PDT
Civil Twilight 6:41 AM PDT 7:12 PM PDT
Nautical Twilight 6:11 AM PDT 7:42 PM PDT
Astronomical Twilight 5:40 AM PDT 8:13 PM PDT
Moon 2:32 PM PDT (10/5) No Moon Set
Length of Visible Light 12h 30m
Length of Day
11h 38m
Waxing Crescent, 51% of the Moon is Illuminated
Oct 5
Waxing Crescent
Oct 13
Full
Oct 21
Last Quarter
Oct 27
New
Nov 4
First Quarter

Hourly Weather History & Observations

Time (PDT) Temp. Dew Point Humidity Pressure Visibility Wind Dir Wind Speed Gust Speed Precip Events Conditions
12:53 AM 54.0 °F 46.0 °F 75% 30.13 in 10.0 mi East 3.5 mph - N/A   Clear
1:53 AM 54.0 °F 44.1 °F 69% 30.13 in 10.0 mi ENE 4.6 mph - N/A   Clear
2:53 AM 52.0 °F 42.1 °F 69% 30.12 in 10.0 mi NE 3.5 mph - N/A   Clear
3:53 AM 50.0 °F 42.1 °F 74% 30.11 in 10.0 mi NE 3.5 mph - N/A   Clear
4:53 AM 50.0 °F 42.1 °F 74% 30.12 in 10.0 mi ENE 3.5 mph - N/A   Clear
5:53 AM 51.1 °F 42.1 °F 71% 30.12 in 10.0 mi NE 3.5 mph - N/A   Clear
6:53 AM 50.0 °F 42.1 °F 74% 30.12 in 10.0 mi Calm Calm - N/A   Clear
7:53 AM 52.0 °F 45.0 °F 77% 30.13 in 10.0 mi ENE 3.5 mph - N/A   Clear
8:53 AM 61.0 °F 48.9 °F 64% 30.15 in 10.0 mi Calm Calm - N/A   Clear
9:53 AM 62.1 °F 51.1 °F 67% 30.16 in 10.0 mi SW 3.5 mph - N/A   Clear
10:53 AM 64.0 °F 52.0 °F 65% 30.15 in 10.0 mi West 6.9 mph - N/A   Clear
11:53 AM 70.0 °F 46.0 °F 42% 30.14 in 10.0 mi WNW 9.2 mph - N/A   Clear
12:53 PM 73.0 °F 39.0 °F 29% 30.12 in 10.0 mi West 8.1 mph - N/A   Clear
1:53 PM 77.0 °F 41.0 °F 28% 30.09 in 10.0 mi WNW 11.5 mph - N/A   Clear
2:53 PM 78.1 °F 42.1 °F 28% 30.06 in 10.0 mi West 11.5 mph - N/A   Clear
3:53 PM 79.0 °F 45.0 °F 30% 30.04 in 10.0 mi NW 11.5 mph - N/A   Clear
4:53 PM 78.1 °F 46.0 °F 32% 30.03 in 10.0 mi WNW 9.2 mph - N/A   Partly Cloudy
5:53 PM 73.0 °F 46.9 °F 39% 30.02 in 10.0 mi NW 10.4 mph - N/A   Partly Cloudy
6:53 PM 70.0 °F 43.0 °F 38% 30.02 in 10.0 mi NW 8.1 mph - N/A   Partly Cloudy
7:53 PM 66.9 °F 41.0 °F 39% 30.03 in 10.0 mi SE 3.5 mph - N/A   Clear
8:53 PM 64.9 °F 43.0 °F 45% 30.03 in 10.0 mi Calm Calm - N/A   Clear
9:53 PM 62.1 °F 46.0 °F 56% 30.03 in 10.0 mi NW 3.5 mph - N/A   Clear
10:53 PM 55.0 °F 43.0 °F 64% 30.04 in 10.0 mi Calm Calm - N/A   Clear
11:53 PM 60.1 °F 46.9 °F 62% 30.03 in 10.0 mi Calm Calm - N/A   Clear